This demonstration page uses our WeatherBlox Daily Observations layout. Learn more.

Left ArrowRight Arrow

38.89511, -77.03637

Hourly Observations for May 2, 2017

Temp ( °F °C ) Dew Point ( °F °C ) Humidity (%) Winds ( mph kmh ) Pressure ( in mb ) Visibility ( mi km ) Precip ( " mm )
12:52 am 00:52 Cloudy 76 24.4 66 18.9 72 72 SSW 15 24 29.63 1004 10 16 0.00 0.00
1:28 am 01:28 Mostly Cloudy 75 24 66 19 74 74 SSW 18 30 29.62 1003 10 16 0.00 0.00
1:52 am 01:52 Cloudy 75 23.9 66 18.9 74 74 SSW 20 31 29.63 1003 10 16 0.00 0.00
2:15 am 02:15 Mostly Cloudy 73 23 66 19 78 78 SSW 20 31 29.62 1003 10 16 0.00 0.00
2:52 am 02:52 Mostly Cloudy 74 23.3 67 19.4 79 79 SSW 15 24 29.62 1003 10 16 0.00 0.00
3:52 am 03:52 Partly Cloudy 72 22.2 66 18.9 82 82 SSW 15 24 29.61 1003 10 16 0.00 0.00
4:20 am 04:20 Mostly Cloudy 72 22 66 19 83 83 SW 16 26 29.62 1003 10 16 0.00 0.00
4:28 am 04:28 Partly Cloudy 72 22 66 19 83 83 SSW 16 26 29.62 1003 10 16 0.00 0.00
4:52 am 04:52 Mostly Clear 71 21.7 64 17.8 79 79 SSW 16 26 29.62 1003 10 16 0.00 0.00
5:52 am 05:52 Mostly Clear 69 20.6 63 17.2 81 81 SW 14 22 29.64 1004 10 16 0.00 0.00
6:52 am 06:52 Partly Cloudy 68 20 62 16.7 81 81 WSW 9 15 29.67 1005 10 16 0.00 0.00
7:52 am 07:52 Partly Cloudy 69 20.6 61 16.1 76 76 W 8 13 29.68 1005 10 16 0.00 0.00
8:13 am 08:13 Mostly Cloudy 69 20.6 61 16.1 76 76 W 9 15 29.68 1005 10 16 0.00 0.00
8:52 am 08:52 Mostly Cloudy 70 21.1 61 16.1 73 73 WSW 12 19 29.68 1005 10 16 0.00 0.00
9:52 am 09:52 Mostly Cloudy 73 22.8 54 12.2 51 51 WSW 16 26 29.69 1006 10 16 0.00 0.00
10:52 am 10:52 Mostly Cloudy 74 23.3 51 10.6 45 45 W 17 28 29.70 1006 10 16 0.00 0.00
11:52 am 11:52 Partly Cloudy 75 23.9 45 7.2 34 34 W 18 30 29.72 1006 10 16 0.00 0.00
12:52 pm 12:52 Mostly Sunny 75 23.9 42 5.6 31 31 WSW 21 33 29.71 1006 10 16 0.00 0.00
1:52 pm 13:52 Mostly Sunny 75 23.9 41 5 29 29 WSW 20 31 29.72 1006 10 16 0.00 0.00
2:52 pm 14:52 Partly Cloudy 76 24.4 40 4.4 27 27 W 18 30 29.71 1006 10 16 0.00 0.00
3:52 pm 15:52 Mostly Cloudy 77 25 40 4.4 26 26 SW 16 26 29.70 1006 10 16 0.00 0.00
4:52 pm 16:52 Partly Cloudy 79 26.1 40 4.4 25 25 SW 18 30 29.69 1006 10 16 0.00 0.00
5:31 pm 17:31 Mostly Cloudy 79 26.1 34 1.1 20 20 WNW 22 35 29.71 1006 10 16 0.00 0.00
5:52 pm 17:52 Partly Cloudy 78 25.6 35 1.7 21 21 W 17 28 29.72 1006 10 16 0.00 0.00
6:52 pm 18:52 Mostly Sunny 75 23.9 35 1.7 23 23 W 20 31 29.74 1007 10 16 0.00 0.00
7:52 pm 19:52 Mostly Sunny 73 22.8 34 1.1 24 24 WNW 14 22 29.77 1008 10 16 0.00 0.00
8:52 pm 20:52 Mostly Clear 71 21.7 34 1.1 26 26 WNW 10 17 29.80 1009 10 16 0.00 0.00
9:52 pm 21:52 Mostly Clear 69 20.6 34 1.1 27 27 W 7 11 29.82 1010 10 16 0.00 0.00
10:52 pm 22:52 Mostly Clear 68 20 35 1.7 30 30 WSW 5 7 29.83 1010 10 16 0.00 0.00
11:52 pm 23:52 Mostly Cloudy 65 18.3 40 4.4 40 40 WSW 3 6 29.83 1010 10 16 0.00 0.00

Powered by AerisWeather